This is the latest recevied weather packets stored in our database for station/object 4S6DRJ-13. If no packets are shown the sender has not sent any weather packets the latest 10 day(s).
| Time | Temp. | Humidity | Pressure | Rain* | Wind** | Luminosity | Snow |
|---|---|---|---|---|---|---|---|
| 1787902698 | 30.56° C | 75% | 1009 hPa | 0 mm | 2.24 m/s, 1° | 669 W/m² | - |
| 1787902637 | 30.56° C | 74% | 1009.1 hPa | 0 mm | 2.24 m/s, 279° | 506 W/m² | - |
| 1787902575 | 30.56° C | 74% | 1009 hPa | 0 mm | 2.68 m/s, 269° | 586 W/m² | - |
| 1787902515 | 30.56° C | 73% | 1009.2 hPa | 0 mm | 4.02 m/s, 238° | 777 W/m² | - |
| 1787902453 | 30.56° C | 74% | 1009.1 hPa | 0 mm | 2.24 m/s, 131° | 512 W/m² | - |
| 1787902392 | 30.56° C | 75% | 1009 hPa | 0 mm | 1.34 m/s, 233° | 459 W/m² | - |
| 1787902331 | 30.56° C | 75% | 1009.1 hPa | 0 mm | 1.79 m/s, 318° | 381 W/m² | - |
| 1787902270 | 30.56° C | 75% | 1009 hPa | 0 mm | 1.79 m/s, 267° | 721 W/m² | - |
| 1787902209 | 30.56° C | 76% | 1009.1 hPa | 0 mm | 1.79 m/s, 230° | 666 W/m² | - |
| 1787902148 | 30.56° C | 76% | 1009.2 hPa | 0 mm | 2.24 m/s, 235° | 550 W/m² | - |
| 1787902087 | 30.56° C | 75% | 1009.1 hPa | 0 mm | 2.68 m/s, 283° | 463 W/m² | - |
| 1787902026 | 30.56° C | 75% | 1009 hPa | 0 mm | 2.24 m/s, 285° | 1141 W/m² | - |
| 1787901965 | 30° C | 75% | 1009 hPa | 0 mm | 1.79 m/s, 30° | 451 W/m² | - |
| 1787901905 | 30° C | 75% | 1009.1 hPa | 0 mm | 1.34 m/s, 262° | 1110 W/m² | - |
| 1787901843 | 30.56° C | 75% | 1009.2 hPa | 0 mm | 1.34 m/s, 255° | 1140 W/m² | - |
| 1787901782 | 30.56° C | 75% | 1009.1 hPa | 0 mm | 1.79 m/s, 260° | 1133 W/m² | - |
| 1787901721 | 30.56° C | 75% | 1009.1 hPa | 0 mm | 3.13 m/s, 358° | 371 W/m² | - |
| 1787901660 | 30.56° C | 75% | 1009.1 hPa | 0 mm | 1.79 m/s, 259° | 954 W/m² | - |
| 1787901599 | 30.56° C | 75% | 1009.2 hPa | 0 mm | 4.47 m/s, 259° | 1120 W/m² | - |
| 1787901538 | 30.56° C | 74% | 1009.3 hPa | 0 mm | 4.47 m/s, 234° | 478 W/m² | - |
| 1787901477 | 30.56° C | 75% | 1009.3 hPa | 0 mm | 1.34 m/s, 197° | 363 W/m² | - |
| 1787901416 | 30.56° C | 74% | 1009.4 hPa | 0 mm | 1.79 m/s, 154° | 407 W/m² | - |
| 1787901355 | 31.11° C | 73% | 1009.4 hPa | 0 mm | 3.13 m/s, 176° | 1101 W/m² | - |
| 1787901294 | 31.11° C | 74% | 1009.3 hPa | 0 mm | 3.13 m/s, 269° | 1125 W/m² | - |
| 1787901233 | 30.56° C | 75% | 1009.3 hPa | 0 mm | 2.68 m/s, 305° | 1130 W/m² | - |
* Rain latest hour (hover to see other rain measurements)
** Current wind speed in m/s (hover to see current wind gust speed)